User: anonymous   Login
Location: Unspecified
(0.0000°N, 0.0000°E)
Time: 07:11:04
(UTC+00:00)
Language:

SAR-Lupe-3 - Orbit

View from above orbital plane
View from above orbital plane
View from above satellite
View from above satellite

Ground track
Ground track

The orbit data is extracted from the following two-line orbital elements,

1 32283U 07053A   18216.85644588 0.00000600  00000-0  22168-4 0    01
2 32283  98.1471  79.2319 0004000  99.8296 260.1703 15.27756892    09
Epoch (UTC): 04 August 2018 20:33:16
Eccentricity: 0.0004000
inclination: 98.1471°
perigee height: 480 km
apogee height: 485 km
right ascension of ascending node: 79.2319°
argument of perigee: 99.8296°
revolutions per day: 15.27756892
mean anomaly at epoch: 260.1703°
orbit number at epoch: 0

The dashed part of the orbit path shows where the satellite is in the earth's shadow,  

DLR